331  
ASUS44 KLCH 191911  
RWRLCH  
REGIONAL WEATHER ROUNDUP  
NATIONAL WEATHER SERVICE LAKE CHARLES LA  
200 PM CDT TUE MAR 19 2019  
 
NOTE: "FAIR" INDICATES FEW OR NO CLOUDS BELOW 12,000 FEET WITH NO  
SIGNIFICANT WEATHER AND/OR S TO VISIBILITY
.  
 
ACROSS SOUTHEAST TEXAS  
 
CITY SKY/WX TMP DP RH WIND PRES REMARKS
 
BEAUMONT FAIR 72 40 31 E10 30.27F  
BEAUMONT CITY NOT AVBL  
ORANGE FAIR 67 43 41 E6 30.29F  
JASPER FAIR 69 39 33 NE6 30.30F  

 
 
ACROSS CENTRAL LOUISIANA  
 
CITY SKY/WX TMP DP RH WIND PRES REMARKS
 
LEESVILLE NOT AVBL  
FULLERTON FAIR 68 36 30 VRB3 30.26F  
ALEXANDRIA INT FAIR 68 34 28 N8 30.28F  
ESLER FIELD FAIR 67 30 25 VRB6 30.30F  
DERIDDER FAIR 68 34 27 N8 30.30F  
OAKDALE FAIR 68 35 29 N8 30.29F  
OPELOUSAS FAIR 66 35 31 N10G21 30.28F  

 
 
ACROSS SOUTHWEST AND SOUTH CENTRAL LOUISIANA  
 
CITY SKY/WX TMP DP RH WIND PRES REMARKS
 
DEQUINCY FAIR 67 37 33 E3G20 30.29F  
SULPHUR FAIR 69 39 33 E6G17 30.29F  
LAKE CHARLES FAIR 69 39 33 NE16 30.28F  
CHENNAULT INT SUNNY 68 39 34 E12G20 30.29F  
CAMERON PHI CLEAR 64 45 48 SE9 30.27F  
GRAND CHENIER CLEAR 66 41 39 NE9G16 30.27F  
JENNINGS FAIR 66 37 34 E10 30.29F  
LAFAYETTE FAIR 69 36 29 NE12 30.28F  
NEW IBERIA FAIR 67 34 29 NE10 30.28F  
ABBEVILLE FAIR 66 37 33 N8 30.28F  
PATTERSON FAIR 66 38 35 NE10G18 30.27F  
SALT POINT N/A N/A N/A N/A VRB6 30.26F  

 
 
SELECTED SITES ACROSS THE REGION  
 
CITY SKY/WX TMP DP RH WIND PRES REMARKS
 
HOUSTON BUSH PTSUNNY 70 41 34 SE10 30.26F  
HOUSTON HOBBY FAIR 71 40 32 SE17 30.26F  
GALVESTON FAIR 67 49 52 E16G23 30.27F  
COLLEGE STAT MOSUNNY 67 40 37 SE13 30.26F  
CONROE SUNNY 71 39 31 E8G18 30.27F  
HUNTSVILLE SUNNY 70 39 32 VRB3 30.26F  
LUFKIN SUNNY 67 42 40 VRB7 30.28F  
SHREVEPORT SUNNY 67 37 33 VRB5 30.29F  
MONROE FAIR 65 32 29 E8 30.34F  
NATCHEZ MS FAIR 64 30 27 E10G17 30.30F  
BATON ROUGE FAIR 68 31 25 N10G25 30.27F  
N.O. INTL ARPT FAIR 63 30 28 NE9 30.27F  
SLIDELL FAIR 65 23 20 N9G20 30.27F  

 
 
MARINE REPORTS  
 
STATION/POSITION TIME SKY/WX TEMP WIND PRES VSBY
 
AIR SEA DIR/SP/G  
(UTC) (F) (DEG/KT/KT) (MB) (MI)  
BUOY 30 S HIGH I 1850 62 63 80/ 14/ 17 1025.5F  
WVE H/P(F/S)= 4/ 6  
 
SEA RIM ST PARK 1900 63 110/ 12/ 16 1025.3F  
PORT ARTHUR 1842 64 61 80/ 6/ 11 1025.8F  
SABINE PASS N 1842 62 62 100/ 14/ 17 1027.1F  
TEXAS POINT NOT AVBL  
CALCASIEU PASS 1842 63 59 140/ 8/ 11 1024.4F  
LK CHARLES BEACH 1842 66 62 1025.4F  
MARSH ISLAND 1800 57 N/A  
FRESH WATER LOCK 1842 64 60 70/ 10/ 12 1025.3F  
AMERADA PASS 1842 65 55 10/ 7/ 10 1025.0F  

 
 
 
CLICK HERE TO GO TO PREVIOUS BULLETINS.

The Nexlab LA Page
The Nexlab TX Page Main Text Page